WXM80 ListenWXM80 Stop

You find our weather info also at:

UK Metoffice

WeatherCloud

Weather Underground

Northeastern Weather Network

AWEKAS

Citizen Weather Observer Program (CWOP)

HAMweather, WeatherForYou, PWS Weather


Weather Underground History page Text

Daily Summary for July 5, 2017 Units:  Metric    English   Both
« Previous Day
Next Day »
Daily Weekly Monthly Yearly Custom
  High: Low: Average:
Temperature: 29.6 °C 17 °C 23.1 °C
Dew Point: 23.2 °C 12.8 °C 17.2 °C
Humidity: 92 % 38 % 72 %
Wind Speed: 12.1 km/h 0 km/h 1.9 km/h
Wind Gust: 24.1 km/h - -
Wind:- - ESE
Pressure: 1021.9 hPa 1017.8 hPa -
Precipitation: 0 mm    
Historical Graphs
 
 
Tabular Data for July 5, 2017
Time Temperature Dew Point Pressure Wind Wind Speed Wind Gust Humidity Rainfall Rate (Hourly)
00:00 20.4 °C 16.2 °C 1018.2 hPa Calm     77 % 0 mm
00:05 20.3 °C 16.3 °C 1018.2 hPa Calm     78 % 0 mm
00:10 20.2 °C 16.2 °C 1018.2 hPa Calm     78 % 0 mm
00:15 20.1 °C 16.1 °C 1018.2 hPa Calm     78 % 0 mm
00:20 19.9 °C 16.2 °C 1017.8 hPa Calm     79 % 0 mm
00:25 19.9 °C 16.1 °C 1018.2 hPa Calm     79 % 0 mm
00:30 19.8 °C 16.1 °C 1018.2 hPa Calm     79 % 0 mm
00:36 19.7 °C 16 °C 1017.8 hPa Calm   1.6 km/h 79 % 0 mm
00:41 19.7 °C 15.9 °C 1018.2 hPa Calm   1.6 km/h 79 % 0 mm
00:46 19.6 °C 16.1 °C 1018.2 hPa WNW 0.2 km/h   80 % 0 mm
00:51 19.6 °C 16.2 °C 1017.8 hPa Calm     81 % 0 mm
00:55 19.4 °C 16.1 °C 1018.2 hPa Calm   1.9 km/h 81 % 0 mm
01:01 19.4 °C 16.1 °C 1018.2 hPa WNW 0.2 km/h 1.9 km/h 81 % 0 mm
01:06 19.3 °C 16 °C 1018.2 hPa Calm   1.9 km/h 81 % 0 mm
01:11 19.3 °C 16.1 °C 1018.2 hPa Calm   1.9 km/h 82 % 0 mm
01:16 19.2 °C 16.3 °C 1018.2 hPa Calm     83 % 0 mm
01:21 19.2 °C 16.2 °C 1018.2 hPa Calm     83 % 0 mm
01:26 19.1 °C 16.1 °C 1018.2 hPa Calm     83 % 0 mm
01:31 19.1 °C 16.1 °C 1018.2 hPa WNW 0.3 km/h 1.9 km/h 83 % 0 mm
01:36 18.9 °C 16 °C 1018.5 hPa WNW 0.2 km/h 1.6 km/h 83 % 0 mm
01:41 18.9 °C 16.2 °C 1018.2 hPa Calm     84 % 0 mm
01:46 18.8 °C 16.1 °C 1018.2 hPa WNW 0.3 km/h 1.9 km/h 84 % 0 mm
01:51 18.8 °C 16.3 °C 1018.5 hPa Calm     85 % 0 mm
01:56 18.8 °C 16.2 °C 1018.5 hPa WNW 0.2 km/h 1.9 km/h 85 % 0 mm
02:01 18.7 °C 16.2 °C 1018.5 hPa Calm   1.9 km/h 85 % 0 mm
02:07 18.7 °C 16.1 °C 1018.2 hPa Calm     85 % 0 mm
02:12 18.6 °C 16.1 °C 1018.2 hPa Calm     85 % 0 mm
02:17 18.6 °C 16.2 °C 1018.2 hPa Calm   1.9 km/h 86 % 0 mm
02:22 18.6 °C 16.2 °C 1018.2 hPa WNW 0.5 km/h 1.9 km/h 86 % 0 mm
02:27 18.5 °C 16.1 °C 1018.2 hPa WNW 0.2 km/h 1.9 km/h 86 % 0 mm
02:32 18.4 °C 16.1 °C 1018.2 hPa Calm     86 % 0 mm
02:37 18.4 °C 16.2 °C 1018.2 hPa Calm   1.9 km/h 87 % 0 mm
02:42 18.3 °C 16.1 °C 1018.5 hPa WNW 0.5 km/h 3.2 km/h 87 % 0 mm
02:47 18.3 °C 16.1 °C 1018.5 hPa Calm     87 % 0 mm
02:52 18.2 °C 16.2 °C 1018.5 hPa WNW 0.2 km/h 1.9 km/h 88 % 0 mm
02:57 18.2 °C 16.2 °C 1018.5 hPa WNW 0.6 km/h 1.9 km/h 88 % 0 mm
03:02 18.2 °C 16.2 °C 1018.5 hPa Calm     88 % 0 mm
03:07 18.1 °C 16.1 °C 1018.5 hPa Calm     88 % 0 mm
03:12 18.1 °C 16.1 °C 1018.5 hPa Calm     88 % 0 mm
03:17 18 °C 16 °C 1018.5 hPa Calm     88 % 0 mm
03:22 18 °C 16 °C 1018.5 hPa Calm     88 % 0 mm
03:27 17.9 °C 15.9 °C 1018.5 hPa WNW 0.2 km/h 1.9 km/h 88 % 0 mm
03:28 17.9 °C 15.9 °C 1018.5 hPa Calm   1.9 km/h 88 % 0 mm
03:33 17.9 °C 15.9 °C 1018.5 hPa Calm   1.9 km/h 88 % 0 mm
03:38 17.8 °C 15.8 °C 1018.5 hPa Calm     88 % 0 mm
03:43 17.8 °C 15.9 °C 1018.5 hPa Calm     89 % 0 mm
03:48 17.7 °C 15.7 °C 1018.8 hPa Calm     88 % 0 mm
03:53 17.7 °C 15.8 °C 1018.8 hPa Calm   1.9 km/h 89 % 0 mm
03:58 17.7 °C 15.8 °C 1018.8 hPa Calm   1.9 km/h 89 % 0 mm
04:03 17.6 °C 15.7 °C 1018.8 hPa Calm     89 % 0 mm
04:08 17.6 °C 15.7 °C 1018.8 hPa Calm     89 % 0 mm
04:13 17.6 °C 15.9 °C 1018.8 hPa Calm     90 % 0 mm
04:18 17.5 °C 15.8 °C 1018.8 hPa Calm     90 % 0 mm
04:23 17.5 °C 15.8 °C 1018.8 hPa Calm     90 % 0 mm
04:28 17.4 °C 15.8 °C 1018.8 hPa Calm     90 % 0 mm
04:33 17.4 °C 15.7 °C 1018.8 hPa Calm     90 % 0 mm
04:38 17.4 °C 15.7 °C 1018.8 hPa Calm     90 % 0 mm
04:43 17.3 °C 15.7 °C 1018.8 hPa Calm     90 % 0 mm
04:49 17.3 °C 15.6 °C 1018.8 hPa Calm     90 % 0 mm
04:54 17.2 °C 15.6 °C 1018.8 hPa Calm     90 % 0 mm
04:59 17.2 °C 15.6 °C 1019.2 hPa Calm     90 % 0 mm
05:04 17.2 °C 15.5 °C 1019.2 hPa Calm     90 % 0 mm
05:09 17.1 °C 15.4 °C 1019.2 hPa Calm     90 % 0 mm
05:14 17.1 °C 15.4 °C 1019.2 hPa Calm     90 % 0 mm
05:15 17.1 °C 15.6 °C 1019.2 hPa Calm     91 % 0 mm
05:20 17.1 °C 15.6 °C 1019.2 hPa Calm     91 % 0 mm
05:25 17.1 °C 15.6 °C 1019.5 hPa WNW 0.6 km/h 1.9 km/h 91 % 0 mm
05:30 17 °C 15.5 °C 1019.2 hPa WNW 0.6 km/h 1.9 km/h 91 % 0 mm
05:35 17 °C 15.5 °C 1019.2 hPa ENE 1.9 km/h 5.6 km/h 91 % 0 mm
05:40 17.1 °C 15.6 °C 1019.2 hPa ENE 2.3 km/h 5.6 km/h 91 % 0 mm
05:45 17.2 °C 15.8 °C 1019.5 hPa ENE 2.9 km/h 5.6 km/h 92 % 0 mm
05:50 17.2 °C 15.9 °C 1019.5 hPa NE 2.1 km/h 5.6 km/h 92 % 0 mm
05:55 17.4 °C 15.9 °C 1019.5 hPa ENE 2.6 km/h 3.7 km/h 91 % 0 mm
06:00 17.6 °C 16.2 °C 1019.5 hPa NE 2.9 km/h 5.6 km/h 92 % 0 mm
06:01 17.6 °C 16.3 °C 1019.5 hPa NE 1.6 km/h 5.6 km/h 92 % 0 mm
06:06 17.8 °C 16.3 °C 1019.5 hPa NE 1.9 km/h 5.6 km/h 91 % 0 mm
06:11 17.9 °C 16.4 °C 1019.5 hPa ENE 3.4 km/h 4.8 km/h 91 % 0 mm
06:16 18.2 °C 16.7 °C 1019.5 hPa NE 2.3 km/h 11.1 km/h 91 % 0 mm
06:21 18.3 °C 16.7 °C 1019.5 hPa NE 6 km/h 11.1 km/h 90 % 0 mm
06:26 18.6 °C 16.8 °C 1019.5 hPa NE 4.7 km/h 8 km/h 89 % 0 mm
06:31 18.9 °C 17.1 °C 1019.9 hPa NNE 2.3 km/h 3.7 km/h 89 % 0 mm
06:36 19.2 °C 17.1 °C 1019.9 hPa ENE 2.7 km/h 7.4 km/h 88 % 0 mm
06:41 19.4 °C 17.2 °C 1019.9 hPa ENE 1.8 km/h 3.7 km/h 87 % 0 mm
06:46 19.8 °C 17.6 °C 1019.9 hPa East 1.9 km/h 5.6 km/h 87 % 0 mm
06:52 20.1 °C 17.9 °C 1019.9 hPa NNE 3.2 km/h 5.6 km/h 87 % 0 mm
06:57 20.4 °C 18 °C 1019.9 hPa NE 2.4 km/h 7.4 km/h 86 % 0 mm
07:02 20.8 °C 18.1 °C 1019.9 hPa NE 3.7 km/h 5.6 km/h 84 % 0 mm
07:07 21.2 °C 18.2 °C 1020.2 hPa NE 2.7 km/h 5.6 km/h 83 % 0 mm
07:11 21.3 °C 17.9 °C 1020.2 hPa ENE 3.2 km/h 8 km/h 81 % 0 mm
07:16 21.7 °C 18.5 °C 1020.2 hPa NE 3.2 km/h 9.7 km/h 82 % 0 mm
07:21 21.9 °C 18.3 °C 1020.2 hPa NE 4.8 km/h 9.7 km/h 80 % 0 mm
07:26 22.2 °C 18.4 °C 1020.5 hPa NE 4.8 km/h 14.5 km/h 79 % 0 mm
07:31 22.4 °C 18.3 °C 1020.5 hPa NE 4.8 km/h 11.3 km/h 78 % 0 mm
07:36 22.6 °C 18.3 °C 1020.5 hPa NE 3.2 km/h 9.3 km/h 77 % 0 mm
07:41 22.7 °C 18.4 °C 1020.9 hPa NE 3.2 km/h 11.3 km/h 77 % 0 mm
07:46 22.7 °C 18.3 °C 1020.9 hPa NE 4.8 km/h 11.3 km/h 76 % 0 mm
07:51 22.7 °C 18 °C 1020.9 hPa NE 4.8 km/h 12.9 km/h 75 % 0 mm
07:56 22.6 °C 18.4 °C 1020.9 hPa ENE 3.2 km/h 11.3 km/h 77 % 0 mm
08:01 22.6 °C 18.5 °C 1021.2 hPa ENE 2.7 km/h 6.4 km/h 78 % 0 mm
08:06 22.5 °C 18.3 °C 1021.2 hPa ENE 4.5 km/h 9.7 km/h 77 % 0 mm
08:11 22.4 °C 17.8 °C 1021.2 hPa ENE 1.6 km/h 8 km/h 75 % 0 mm
08:16 22.4 °C 17.9 °C 1021.2 hPa ENE 2.4 km/h 5.6 km/h 76 % 0 mm
08:21 22.4 °C 17.9 °C 1021.2 hPa NE 1.1 km/h 3.7 km/h 76 % 0 mm
08:26 22.4 °C 17.7 °C 1021.2 hPa NE 1.4 km/h 5.6 km/h 75 % 0 mm
08:31 22.3 °C 17.9 °C 1021.2 hPa NE 1.3 km/h 3.7 km/h 76 % 0 mm
08:36 22.3 °C 17.9 °C 1021.2 hPa NE 6 km/h 9.3 km/h 76 % 0 mm
08:41 22.3 °C 18.3 °C 1021.2 hPa ENE 2.9 km/h 7.4 km/h 78 % 0 mm
08:46 22.3 °C 18.1 °C 1021.2 hPa NE 3.1 km/h 5.6 km/h 77 % 0 mm
08:51 22.3 °C 17.7 °C 1021.2 hPa NNE 4.3 km/h 7.4 km/h 75 % 0 mm
08:56 22.3 °C 17.8 °C 1021.2 hPa NE 3.7 km/h 6.4 km/h 76 % 0 mm
09:01 22.3 °C 18.1 °C 1021.6 hPa ENE 4.3 km/h 11.3 km/h 77 % 0 mm
09:06 22.2 °C 17.8 °C 1021.6 hPa ENE 3.5 km/h 5.6 km/h 76 % 0 mm
09:11 22.2 °C 18.2 °C 1021.6 hPa ENE 1.8 km/h 3.7 km/h 78 % 0 mm
09:16 22.2 °C 18 °C 1021.6 hPa ENE 3.4 km/h 5.6 km/h 77 % 0 mm
09:21 22.2 °C 18.2 °C 1021.6 hPa ENE 3.2 km/h 4.8 km/h 78 % 0 mm
09:26 22.3 °C 18.3 °C 1021.6 hPa NE 2.6 km/h 5.6 km/h 78 % 0 mm
09:31 22.2 °C 18.2 °C 1021.6 hPa ENE 2.4 km/h 3.7 km/h 78 % 0 mm
09:36 22.2 °C 18.2 °C 1021.6 hPa ENE 3.5 km/h 6.4 km/h 78 % 0 mm
09:41 22.2 °C 18.2 °C 1021.6 hPa NE 4.3 km/h 8 km/h 78 % 0 mm
09:46 22.3 °C 18.3 °C 1021.2 hPa ENE 4.8 km/h 6.4 km/h 78 % 0 mm
09:51 22.5 °C 18.4 °C 1021.2 hPa ENE 2.7 km/h 9.3 km/h 78 % 0 mm
09:56 22.8 °C 18.7 °C 1021.2 hPa ENE 3.5 km/h 9.3 km/h 78 % 0 mm
10:02 23.1 °C 18.6 °C 1021.2 hPa ENE 4.8 km/h 14.5 km/h 76 % 0 mm
10:07 23.4 °C 18.8 °C 1021.6 hPa ENE 5.3 km/h 8 km/h 75 % 0 mm
10:12 23.8 °C 19.3 °C 1021.2 hPa NNE 3.7 km/h 5.6 km/h 76 % 0 mm
10:17 24.1 °C 19.3 °C 1021.6 hPa ENE 2.7 km/h 5.6 km/h 75 % 0 mm
10:22 24.2 °C 19.2 °C 1021.6 hPa ENE 2.4 km/h 9.3 km/h 74 % 0 mm
10:27 24.3 °C 19.6 °C 1021.2 hPa NE 2.9 km/h 4.8 km/h 75 % 0 mm
10:32 24.7 °C 20.4 °C 1021.6 hPa NNE 3.7 km/h 4.8 km/h 77 % 0 mm
10:37 24.9 °C 20.2 °C 1021.6 hPa NE 1.6 km/h 6.4 km/h 75 % 0 mm
10:42 25.1 °C 20.4 °C 1021.6 hPa ENE 4.5 km/h 5.6 km/h 75 % 0 mm
10:47 25.4 °C 20.2 °C 1021.6 hPa NE 3.2 km/h 13 km/h 73 % 0 mm
10:52 25.7 °C 20.4 °C 1021.6 hPa NE 4.8 km/h 12.9 km/h 73 % 0 mm
10:57 25.8 °C 20.4 °C 1021.6 hPa ENE 0.5 km/h 5.6 km/h 72 % 0 mm
11:02 26.1 °C 20.9 °C 1021.6 hPa ENE 4.2 km/h 11.1 km/h 73 % 0 mm
11:07 26.1 °C 21.3 °C 1021.6 hPa NE 0.6 km/h 5.6 km/h 75 % 0 mm
11:12 26.3 °C 21.1 °C 1021.6 hPa ENE 2.1 km/h 13 km/h 73 % 0 mm
11:15 26.3 °C 20.8 °C 1021.6 hPa NE 4.3 km/h 5.6 km/h 72 % 0 mm
11:20 26.3 °C 21.1 °C 1021.6 hPa NE 2.9 km/h 7.4 km/h 73 % 0 mm
11:25 26.2 °C 20.8 °C 1021.6 hPa NE 4.7 km/h 11.1 km/h 72 % 0 mm
11:30 26.3 °C 21.3 °C 1021.6 hPa ENE 2.7 km/h 5.6 km/h 74 % 0 mm
11:31 26.3 °C 21.8 °C 1021.6 hPa NNE 2.7 km/h 8 km/h 76 % 0 mm
11:36 26.5 °C 21.3 °C 1021.9 hPa ENE 3.5 km/h 11.3 km/h 73 % 0 mm
11:41 26.6 °C 21.6 °C 1021.9 hPa NE 2.7 km/h 5.6 km/h 74 % 0 mm
11:47 26.7 °C 20.9 °C 1021.6 hPa NE 3.5 km/h 11.1 km/h 71 % 0 mm
11:52 26.4 °C 20.9 °C 1021.9 hPa ENE 2.1 km/h 11.1 km/h 72 % 0 mm
11:57 26.3 °C 21.6 °C 1021.6 hPa ENE 1.1 km/h 3.7 km/h 75 % 0 mm
12:02 26.7 °C 21.5 °C 1021.9 hPa ENE 4.3 km/h 5.6 km/h 73 % 0 mm
12:07 26.9 °C 21.4 °C 1021.6 hPa ENE 2.1 km/h 5.6 km/h 72 % 0 mm
12:12 27.1 °C 21.6 °C 1021.6 hPa ENE 5 km/h 11.1 km/h 72 % 0 mm
12:17 27.1 °C 21.1 °C 1021.6 hPa NE 6.3 km/h 9.3 km/h 70 % 0 mm
12:22 27.2 °C 21.9 °C 1021.6 hPa NE 3.1 km/h 5.6 km/h 73 % 0 mm
12:27 27.3 °C 21.2 °C 1021.6 hPa ENE 4.7 km/h 9.7 km/h 69 % 0 mm
12:32 27.3 °C 21.8 °C 1021.6 hPa ENE 1.9 km/h 7.4 km/h 72 % 0 mm
12:37 27.6 °C 22.7 °C 1021.6 hPa ENE 0.2 km/h 1.9 km/h 75 % 0 mm
12:42 27.8 °C 22.3 °C 1021.6 hPa NE 2.1 km/h 5.6 km/h 72 % 0 mm
12:47 27.8 °C 22.1 °C 1021.6 hPa ENE 1 km/h 3.7 km/h 71 % 0 mm
12:52 27.8 °C 22.1 °C 1021.2 hPa ENE 3.2 km/h 8 km/h 71 % 0 mm
12:57 27.8 °C 22.1 °C 1021.2 hPa NE 5.6 km/h 9.3 km/h 71 % 0 mm
13:02 28 °C 22.5 °C 1021.2 hPa NNE 0.8 km/h 3.7 km/h 72 % 0 mm
13:07 28.1 °C 22.3 °C 1021.2 hPa NNE 1.8 km/h 5.6 km/h 71 % 0 mm
13:12 28.3 °C 23.2 °C 1021.2 hPa NE 0.6 km/h 3.7 km/h 74 % 0 mm
13:17 28.5 °C 22.7 °C 1020.9 hPa Calm   1.9 km/h 71 % 0 mm
13:22 28.4 °C 22.4 °C 1021.2 hPa ENE 2.1 km/h 6.4 km/h 70 % 0 mm
13:27 28.2 °C 22.4 °C 1021.2 hPa East 1.6 km/h 11.1 km/h 71 % 0 mm
13:32 28.3 °C 22.3 °C 1021.2 hPa NE 1.6 km/h 5.6 km/h 70 % 0 mm
13:37 28.4 °C 22.9 °C 1021.2 hPa NE 0.3 km/h 1.9 km/h 72 % 0 mm
13:43 28.4 °C 21.9 °C 1021.2 hPa NE 3.2 km/h 5.6 km/h 68 % 0 mm
13:48 28.3 °C 22.3 °C 1021.2 hPa Calm   1.9 km/h 70 % 0 mm
13:53 28.4 °C 21.9 °C 1020.9 hPa NE 0.2 km/h 3.7 km/h 68 % 0 mm
13:58 28.6 °C 22.8 °C 1020.9 hPa NE 0.2 km/h 1.9 km/h 71 % 0 mm
14:03 28.7 °C 22.2 °C 1020.9 hPa NE 3.1 km/h 5.6 km/h 68 % 0 mm
14:08 28.7 °C 21.7 °C 1020.9 hPa NE 2.3 km/h 5.6 km/h 66 % 0 mm
14:13 28.6 °C 22.4 °C 1020.9 hPa NE 0.8 km/h 5.6 km/h 69 % 0 mm
14:18 28.6 °C 21.6 °C 1020.9 hPa ENE 2.9 km/h 5.6 km/h 66 % 0 mm
14:23 28.3 °C 21.4 °C 1020.9 hPa ENE 3.5 km/h 5.6 km/h 66 % 0 mm
14:28 28.3 °C 21.6 °C 1020.9 hPa NE 0.3 km/h 5.6 km/h 67 % 0 mm
14:33 28.3 °C 22.1 °C 1020.9 hPa NE 1.3 km/h 4.8 km/h 69 % 0 mm
14:38 28.4 °C 21.5 °C 1020.9 hPa ENE 3.4 km/h 5.6 km/h 66 % 0 mm
14:43 28.5 °C 21.8 °C 1020.5 hPa NE 1 km/h 9.7 km/h 67 % 0 mm
14:48 28.4 °C 21.9 °C 1020.5 hPa ENE 1.4 km/h 4.8 km/h 68 % 0 mm
14:50 28.5 °C 21.3 °C 1020.9 hPa ENE 0.8 km/h 5.6 km/h 65 % 0 mm
14:55 28.6 °C 21.3 °C 1020.5 hPa NE 3.1 km/h 5.6 km/h 65 % 0 mm
15:00 28.7 °C 21.2 °C 1020.9 hPa ENE 4.7 km/h 11.1 km/h 64 % 0 mm
15:05 28.6 °C 21.4 °C 1020.5 hPa NE 0.3 km/h 1.9 km/h 65 % 0 mm
15:10 28.7 °C 18.5 °C 1020.5 hPa SE 4.2 km/h 9.3 km/h 54 % 0 mm
15:15 28.9 °C 18.1 °C 1020.5 hPa Calm   1.9 km/h 52 % 0 mm
15:20 29.2 °C 17.4 °C 1020.5 hPa SE 3.4 km/h 5.6 km/h 49 % 0 mm
15:25 29.4 °C 17.2 °C 1020.9 hPa ESE 0.6 km/h 3.7 km/h 48 % 0 mm
15:30 29.4 °C 15.6 °C 1020.9 hPa SE 5.8 km/h 14.8 km/h 43 % 0 mm
15:35 29.4 °C 17.3 °C 1020.9 hPa SE 5.1 km/h 8 km/h 48 % 0 mm
15:40 29.4 °C 15.9 °C 1020.9 hPa SE 0.8 km/h 7.4 km/h 44 % 0 mm
15:46 29.5 °C 15.9 °C 1020.9 hPa SSE 8.4 km/h 9.3 km/h 44 % 0 mm
15:51 29.5 °C 15.9 °C 1020.5 hPa South 2.9 km/h 9.3 km/h 44 % 0 mm
15:56 29.6 °C 16 °C 1020.5 hPa SE 8.5 km/h 11.1 km/h 44 % 0 mm
16:01 29.4 °C 15.2 °C 1020.5 hPa SSE 6 km/h 11.3 km/h 42 % 0 mm
16:06 29.3 °C 16.8 °C 1020.5 hPa SSE 2.3 km/h 5.6 km/h 47 % 0 mm
16:11 29.2 °C 16.4 °C 1020.5 hPa SE 5 km/h 16.7 km/h 46 % 0 mm
16:16 28.9 °C 15.1 °C 1020.5 hPa ESE 9.8 km/h 18.5 km/h 43 % 0 mm
16:21 28.7 °C 15.2 °C 1020.5 hPa SE 3.9 km/h 11.1 km/h 44 % 0 mm
16:26 28.6 °C 15.5 °C 1020.5 hPa SE 6.6 km/h 8 km/h 45 % 0 mm
16:31 28.6 °C 15.1 °C 1020.2 hPa SE 6.8 km/h 16.7 km/h 44 % 0 mm
16:36 28.6 °C 15.1 °C 1020.5 hPa SSE 3.2 km/h 7.4 km/h 44 % 0 mm
16:41 28.6 °C 14.4 °C 1020.2 hPa ESE 4 km/h 8 km/h 42 % 0 mm
16:46 28.6 °C 13.2 °C 1020.2 hPa SSE 2.6 km/h 5.6 km/h 39 % 0 mm
16:48 28.6 °C 13.6 °C 1020.2 hPa SE 4.3 km/h 8 km/h 40 % 0 mm
16:53 28.5 °C 12.8 °C 1020.5 hPa SSE 7.6 km/h 14.8 km/h 38 % 0 mm
16:58 28.4 °C 13.5 °C 1020.5 hPa SE 3.2 km/h 8 km/h 40 % 0 mm
17:04 28.2 °C 13.3 °C 1020.5 hPa SSE 12.1 km/h 24.1 km/h 40 % 0 mm
17:09 28.2 °C 14.4 °C 1020.5 hPa SSE 1.6 km/h 3.2 km/h 43 % 0 mm
17:14 28.2 °C 14.1 °C 1020.5 hPa SSE 10.6 km/h 14.8 km/h 42 % 0 mm
17:19 28 °C 13.5 °C 1020.2 hPa SE 3.7 km/h 11.3 km/h 41 % 0 mm
17:24 27.9 °C 14.2 °C 1020.5 hPa South 1.6 km/h 5.6 km/h 43 % 0 mm
17:29 27.8 °C 13.7 °C 1020.2 hPa South 1.9 km/h 5.6 km/h 42 % 0 mm
17:34 27.7 °C 14.3 °C 1020.2 hPa SE 1.1 km/h 3.7 km/h 44 % 0 mm
17:39 27.7 °C 13.9 °C 1020.2 hPa SSE 2.1 km/h 6.4 km/h 43 % 0 mm
17:44 27.6 °C 13.8 °C 1020.2 hPa SSW 1.9 km/h 5.6 km/h 43 % 0 mm
17:49 27.4 °C 14.1 °C 1020.5 hPa South 0.5 km/h 4.8 km/h 44 % 0 mm
17:54 27.3 °C 13.7 °C 1020.2 hPa SE 1.3 km/h 4.8 km/h 43 % 0 mm
17:59 27.1 °C 13.4 °C 1020.5 hPa SSE 7.1 km/h 12.9 km/h 43 % 0 mm
18:04 26.9 °C 13.6 °C 1020.5 hPa SE 8 km/h 14.8 km/h 44 % 0 mm
18:09 26.8 °C 13.8 °C 1020.5 hPa SE 0.5 km/h 5.6 km/h 45 % 0 mm
18:14 26.7 °C 14.1 °C 1020.5 hPa SE 2.7 km/h 5.6 km/h 46 % 0 mm
18:19 26.7 °C 14.4 °C 1020.5 hPa SE 1.8 km/h 5.6 km/h 47 % 0 mm
18:24 26.6 °C 14.1 °C 1020.5 hPa SSE 4.7 km/h 13 km/h 46 % 0 mm
18:29 26.6 °C 14.3 °C 1020.5 hPa SSE 4.5 km/h 5.6 km/h 47 % 0 mm
18:34 26.5 °C 14.9 °C 1020.5 hPa SSE 1.9 km/h 5.6 km/h 49 % 0 mm
18:39 26.4 °C 13.9 °C 1020.5 hPa SE 6.1 km/h 8 km/h 46 % 0 mm
18:44 26.4 °C 15.1 °C 1020.5 hPa SE 0.3 km/h 3.2 km/h 50 % 0 mm
18:49 26.3 °C 14.1 °C 1020.5 hPa SE 7.1 km/h 8 km/h 47 % 0 mm
18:54 26.2 °C 14.3 °C 1020.5 hPa SSE 6.6 km/h 8 km/h 48 % 0 mm
18:59 26.1 °C 13.9 °C 1020.5 hPa SE 6 km/h 13 km/h 47 % 0 mm
19:04 25.9 °C 14.1 °C 1020.2 hPa SE 5.3 km/h 9.3 km/h 48 % 0 mm
19:09 25.8 °C 14.3 °C 1020.5 hPa SSE 2.1 km/h 3.7 km/h 49 % 0 mm
19:14 25.7 °C 14.5 °C 1020.5 hPa SSE 1.4 km/h 5.6 km/h 50 % 0 mm
19:19 25.7 °C 15.1 °C 1020.5 hPa SSE 0.8 km/h 3.7 km/h 52 % 0 mm
19:24 25.6 °C 15 °C 1020.5 hPa SSE 2.3 km/h 3.7 km/h 52 % 0 mm
19:29 25.5 °C 14.9 °C 1020.5 hPa Calm   5.6 km/h 52 % 0 mm
19:34 25.4 °C 14.8 °C 1020.5 hPa SE 3.4 km/h 3.7 km/h 52 % 0 mm
19:39 25.3 °C 15 °C 1020.5 hPa SE 0.6 km/h 5.6 km/h 53 % 0 mm
19:44 25.2 °C 14.9 °C 1020.5 hPa South 4.2 km/h 13 km/h 53 % 0 mm
19:49 25 °C 14.8 °C 1020.5 hPa SE 3.9 km/h 6.4 km/h 53 % 0 mm
19:54 24.9 °C 15.2 °C 1020.5 hPa SE 0.8 km/h 5.6 km/h 55 % 0 mm
19:59 24.7 °C 15.1 °C 1020.5 hPa SE 3.7 km/h 5.6 km/h 55 % 0 mm
20:05 24.6 °C 15.2 °C 1020.2 hPa SE 1.4 km/h 3.7 km/h 56 % 0 mm
20:10 24.4 °C 15.4 °C 1020.2 hPa SE 0.3 km/h   57 % 0 mm
20:15 24.3 °C 15.5 °C 1020.2 hPa SE 2.6 km/h 3.7 km/h 58 % 0 mm
20:20 24.1 °C 15.6 °C 1020.5 hPa Calm   1.9 km/h 59 % 0 mm
20:25 23.9 °C 15.7 °C 1020.5 hPa SE 3.7 km/h 7.4 km/h 60 % 0 mm
20:30 23.8 °C 15.8 °C 1020.5 hPa SE 0.8 km/h 3.7 km/h 61 % 0 mm
20:35 23.6 °C 15.7 °C 1020.5 hPa Calm   1.9 km/h 61 % 0 mm
20:40 23.5 °C 15.8 °C 1020.5 hPa SE 0.5 km/h 3.7 km/h 62 % 0 mm
20:45 23.3 °C 15.9 °C 1020.5 hPa Calm   1.9 km/h 63 % 0 mm
20:50 23.2 °C 15.8 °C 1020.5 hPa Calm     63 % 0 mm
20:55 23.1 °C 15.9 °C 1020.5 hPa SE 0.8 km/h 3.7 km/h 64 % 0 mm
21:00 22.9 °C 16 °C 1020.5 hPa SE 0.2 km/h 1.9 km/h 65 % 0 mm
21:05 22.8 °C 15.9 °C 1020.5 hPa SE 0.5 km/h 1.9 km/h 65 % 0 mm
21:10 22.7 °C 16.3 °C 1020.9 hPa Calm     67 % 0 mm
21:15 22.6 °C 16.3 °C 1020.9 hPa Calm     68 % 0 mm
21:20 22.4 °C 16.4 °C 1020.9 hPa Calm     69 % 0 mm
21:25 22.3 °C 16.3 °C 1020.9 hPa Calm     69 % 0 mm
21:30 22.1 °C 16.2 °C 1020.9 hPa Calm     69 % 0 mm
21:35 21.9 °C 16.2 °C 1021.2 hPa Calm     70 % 0 mm
21:40 21.8 °C 16.3 °C 1021.2 hPa Calm     71 % 0 mm
21:45 21.6 °C 16.6 °C 1021.2 hPa Calm     73 % 0 mm
21:50 21.4 °C 16.4 °C 1021.2 hPa Calm     73 % 0 mm
21:56 21.3 °C 16.3 °C 1021.6 hPa Calm   1.9 km/h 73 % 0 mm
22:01 21.2 °C 16.4 °C 1021.6 hPa Calm     74 % 0 mm
22:06 21.1 °C 16.2 °C 1021.6 hPa Calm     74 % 0 mm
22:11 20.9 °C 16.3 °C 1021.6 hPa Calm     75 % 0 mm
22:16 20.8 °C 16.4 °C 1021.6 hPa Calm     76 % 0 mm
22:21 20.7 °C 16.3 °C 1021.6 hPa Calm     76 % 0 mm
22:26 20.6 °C 16.2 °C 1021.6 hPa Calm     76 % 0 mm
22:31 20.6 °C 16.4 °C 1021.6 hPa Calm     77 % 0 mm
22:36 20.4 °C 16.3 °C 1021.6 hPa Calm     77 % 0 mm
22:41 20.3 °C 16.2 °C 1021.6 hPa Calm     77 % 0 mm
22:46 20.3 °C 16.3 °C 1021.9 hPa Calm     78 % 0 mm
22:51 20.2 °C 16.4 °C 1021.6 hPa Calm     79 % 0 mm
22:56 20.2 °C 16.4 °C 1021.6 hPa Calm     79 % 0 mm
23:01 20.1 °C 16.3 °C 1021.6 hPa Calm     79 % 0 mm
23:06 20.1 °C 16.3 °C 1021.6 hPa Calm     79 % 0 mm
23:11 20 °C 16.4 °C 1021.6 hPa Calm     80 % 0 mm
23:16 19.9 °C 16.4 °C 1021.6 hPa Calm     80 % 0 mm
23:21 19.9 °C 16.3 °C 1021.6 hPa Calm     80 % 0 mm
23:26 19.8 °C 16.3 °C 1021.2 hPa Calm     80 % 0 mm
23:31 19.8 °C 16.4 °C 1021.2 hPa Calm     81 % 0 mm
23:37 19.7 °C 16.6 °C 1021.2 hPa Calm     82 % 0 mm
23:42 19.7 °C 16.5 °C 1020.9 hPa Calm     82 % 0 mm
23:47 19.6 °C 16.4 °C 1020.9 hPa Calm     82 % 0 mm
23:52 19.6 °C 16.4 °C 1020.9 hPa Calm     82 % 0 mm
23:57 19.4 °C 16.3 °C 1020.9 hPa Calm     82 % 0 mm
Crab Meadow Weather
Compliments of Weather Underground - 3 mb

Script developed by  Jim McMurry - jmcmurry@mwt.net Adapted for the template by  Wim van der Kuil - Leuven-Template.eu

Weather Terms: Blizzard Warning - Sustained winds or frequent gusts of 35 mph or greater, considerable falling and/or blowing snow reducing visibility frequently to 1/4 mile or less for a period of three hours or more. There are no temperature criteria in the definition of a blizzard but freezing temperatures and 35 mph winds will create sub-zero wind chills.